Date String (YYYY-MM-DD hh:mm:ss) UTC,Instrument flags,Ambient pressure (hPa),Sample flow (lpm),Bypass flow (lpm),Sample temperature (°C),Ambient temperature (°C),ASC tube jacket temperature (°C),LED temperature (°C),Box temperature (°C),Sample RH (%),Span deviation,Mass concentration (μg/m³),Mass concentration (μg/m³),Mass concentration (μg/m³)
DateTimeUTC,F1_M11,P_M11,Q1_M11,Q2_M11,T1_M11,T2_M11,T3_M11,T4_M11,T5_M11,U1_M11,ZSPAN_M11,X0_M11,X2_M11,X1_M11
2022-02-24 01:00:00,,0822.6,4.99,0.00,22.7,21.7,00.0,31.7,24.4,03.8,0001.1,0009.13,0005.72,0005.25
2022-02-24 01:01:00,,0822.5,4.99,0.00,22.6,21.7,00.0,31.7,24.4,03.8,0001.1,0009.05,0005.69,0005.24
2022-02-24 01:02:00,,0822.5,5.00,0.00,22.6,22.0,00.0,31.7,24.3,03.8,0000.1,0009.02,0005.68,0005.23
2022-02-24 01:03:00,,0822.4,5.01,0.00,22.7,22.7,00.0,31.7,24.6,03.8,0000.4,0009.01,0005.66,0005.21
2022-02-24 01:04:00,,0822.5,4.99,0.00,22.9,23.2,00.0,31.8,24.8,03.8,0000.2,0008.98,0005.65,0005.18
2022-02-24 01:05:00,,0822.5,5.02,0.00,22.9,23.1,00.0,31.8,24.9,03.8,0000.0,0008.65,0005.61,0005.15
2022-02-24 01:06:00,,0822.5,4.99,0.00,22.9,22.9,00.0,31.8,24.8,03.8,0000.0,0008.51,0005.56,0005.11
2022-02-24 01:07:00,,0822.5,5.01,0.00,22.9,22.6,00.0,31.8,24.7,03.9,0000.1,0008.39,0005.50,0005.09
2022-02-24 01:08:00,,0822.5,5.01,0.00,22.9,22.4,00.0,31.8,24.7,03.9,0002.1,0008.32,0005.48,0005.10
2022-02-24 01:09:00,,0822.4,5.00,0.00,22.8,22.2,00.0,31.8,24.6,04.0,0003.0,0008.18,0005.47,0005.11
2022-02-24 01:10:00,,0822.4,4.99,0.00,22.8,22.0,00.0,31.8,24.6,04.1,0002.2,0008.23,0005.45,0005.11
2022-02-24 01:11:00,,0822.5,4.98,0.00,22.7,21.9,00.0,31.7,24.5,04.1,0001.7,0008.67,0005.45,0005.12
2022-02-24 01:12:00,,0822.4,5.01,0.00,22.7,21.8,00.0,31.7,24.4,04.1,0001.7,0008.71,0005.45,0005.12
2022-02-24 01:13:00,,0822.5,5.00,0.00,22.7,21.7,00.0,31.7,24.4,04.1,0001.3,0008.80,0005.42,0005.11
2022-02-24 01:14:00,,0822.5,5.01,0.00,22.6,21.6,00.0,31.7,24.3,04.2,0000.0,0008.80,0005.41,0005.10
2022-02-24 01:15:00,,0822.5,4.99,0.00,22.6,21.7,00.0,31.7,24.3,04.2,0000.5,0008.74,0005.40,0005.10
2022-02-24 01:16:00,,0822.5,5.00,0.00,22.7,22.3,00.0,31.7,24.4,04.2,0000.6,0008.71,0005.40,0005.11
2022-02-24 01:17:00,,0822.5,5.01,0.00,22.8,23.1,00.0,31.7,24.6,04.2,0002.0,0009.18,0005.40,0005.10
2022-02-24 01:18:00,,0822.5,4.99,0.00,22.9,23.2,00.0,31.7,24.8,04.3,0002.1,0009.41,0005.39,0005.06
2022-02-24 01:19:00,,0822.6,5.01,0.00,22.9,22.9,00.0,31.7,24.8,04.3,0001.5,0009.79,0005.39,0005.03
2022-02-24 01:20:00,,0822.6,5.00,0.00,22.9,22.7,00.0,31.7,24.7,04.3,0001.0,0010.43,0005.34,0004.98
2022-02-24 01:21:00,,0822.5,4.99,0.00,22.8,22.4,00.0,31.7,24.7,04.3,0001.8,0010.39,0005.32,0004.95
2022-02-24 01:22:00,,0822.5,5.00,0.00,22.8,22.2,00.0,31.7,24.6,04.4,0001.9,0009.89,0005.31,0004.92
2022-02-24 01:23:00,,0822.6,5.00,0.00,22.8,22.0,00.0,31.7,24.5,04.4,0001.8,0010.03,0005.26,0004.87
2022-02-24 01:24:00,,0822.7,4.99,0.00,22.7,21.9,00.0,31.7,24.5,04.4,0001.8,0010.03,0005.23,0004.84
2022-02-24 01:25:00,,0822.7,5.00,0.00,22.7,21.8,00.0,31.7,24.4,04.5,0001.3,0009.95,0005.21,0004.82
2022-02-24 01:26:00,,0822.7,5.01,0.00,22.6,21.7,00.0,31.7,24.3,04.5,0000.2,0009.97,0005.17,0004.79
2022-02-24 01:27:00,,0822.7,4.99,0.00,22.6,21.6,00.0,31.7,24.3,04.5,0000.0,0010.48,0005.14,0004.76
2022-02-24 01:28:00,,0822.7,4.99,0.00,22.6,21.6,00.0,31.6,24.2,04.6,0000.4,0010.26,0005.14,0004.76
2022-02-24 01:29:00,,0822.7,5.00,0.00,22.6,22.1,00.0,31.7,24.3,04.6,0001.3,0010.12,0005.15,0004.78
2022-02-24 01:30:00,,0822.7,5.01,0.00,22.7,22.7,00.0,31.7,24.5,04.6,0001.0,0009.73,0005.13,0004.77
2022-02-24 01:31:00,,0822.8,4.99,0.00,22.8,23.1,00.0,31.7,24.7,04.6,0000.0,0009.17,0005.13,0004.77
2022-02-24 01:32:00,,0822.7,5.01,0.00,22.8,22.8,00.0,31.7,24.8,04.6,0000.5,0009.14,0005.15,0004.77
2022-02-24 01:33:00,,0822.7,5.00,0.00,22.8,22.5,00.0,31.7,24.6,04.6,0000.0,0009.33,0005.16,0004.77
2022-02-24 01:34:00,,0822.8,5.00,0.00,22.8,22.2,00.0,31.7,24.5,04.6,0000.2,0009.31,0005.20,0004.79
2022-02-24 01:35:00,,0822.9,5.00,0.00,22.7,22.0,00.0,31.7,24.5,04.7,0000.0,0009.35,0005.31,0004.82
2022-02-24 01:36:00,,0822.7,5.00,0.00,22.7,21.8,00.0,31.7,24.4,04.7,0000.0,0009.51,0005.34,0004.84
2022-02-24 01:37:00,,0822.7,5.02,0.00,22.6,21.6,00.0,31.6,24.3,04.7,0000.0,0009.59,0005.35,0004.84
2022-02-24 01:38:00,,0822.7,4.98,0.00,22.5,21.4,00.0,31.6,24.2,04.8,0001.8,0009.31,0005.41,0004.88
2022-02-24 01:39:00,,0822.6,5.01,0.00,22.5,21.3,00.0,31.6,24.1,04.8,0001.7,0009.19,0005.45,0004.91
2022-02-24 01:40:00,,0822.6,5.00,0.00,22.5,21.8,00.0,31.6,24.2,04.8,0001.4,0009.14,0005.48,0004.94
2022-02-24 01:41:00,,0822.6,4.99,0.00,22.6,22.5,00.0,31.6,24.4,04.8,0000.8,0009.19,0005.51,0004.97
2022-02-24 01:42:00,,0822.6,5.00,0.00,22.7,23.1,00.0,31.6,24.6,04.8,0001.2,0009.25,0005.57,0005.02
2022-02-24 01:43:00,,0822.7,5.01,0.00,22.8,22.9,00.0,31.7,24.7,04.8,0000.6,0009.25,0005.63,0005.07
2022-02-24 01:44:00,,0822.7,5.00,0.00,22.8,22.6,00.0,31.6,24.6,04.8,0003.0,0009.17,0005.68,0005.12
2022-02-24 01:45:00,,0822.7,4.99,0.00,22.7,22.3,00.0,31.6,24.5,04.8,0003.3,0009.16,0005.68,0005.15
2022-02-24 01:46:00,,0822.7,5.01,0.00,22.7,22.0,00.0,31.6,24.4,04.9,0003.1,0008.93,0005.64,0005.19
2022-02-24 01:47:00,,0822.6,5.01,0.00,22.6,21.8,00.0,31.6,24.4,04.9,0003.2,0008.78,0005.68,0005.26
2022-02-24 01:48:00,,0822.6,4.99,0.00,22.6,21.6,00.0,31.6,24.3,04.9,0003.2,0008.76,0005.75,0005.34
2022-02-24 01:49:00,,0822.6,5.00,0.00,22.5,21.5,00.0,31.6,24.2,04.9,0002.8,0008.64,0005.78,0005.39
2022-02-24 01:50:00,,0822.6,4.99,0.00,22.5,21.4,00.0,31.5,24.2,04.9,0002.9,0008.75,0005.85,0005.44
2022-02-24 01:51:00,,0822.7,5.00,0.00,22.5,21.7,00.0,31.6,24.1,04.9,0003.0,0008.74,0005.90,0005.50
2022-02-24 01:52:00,,0822.8,5.01,0.00,22.6,22.4,00.0,31.6,24.3,04.9,0003.1,0008.83,0005.95,0005.57
2022-02-24 01:53:00,,0822.9,5.00,0.00,22.7,23.1,00.0,31.6,24.6,04.9,0003.1,0008.94,0006.01,0005.61
2022-02-24 01:54:00,,0822.9,4.99,0.00,22.8,23.0,00.0,31.6,24.7,04.8,0002.7,0009.01,0006.02,0005.65
2022-02-24 01:55:00,,0822.8,5.00,0.00,22.7,22.6,00.0,31.6,24.6,04.8,0002.1,0009.03,0006.02,0005.66
2022-02-24 01:56:00,,0822.8,5.00,0.00,22.7,22.3,00.0,31.6,24.5,04.8,0001.9,0009.10,0006.06,0005.67
2022-02-24 01:57:00,,0822.9,5.00,0.00,22.7,22.0,00.0,31.6,24.4,04.8,0001.6,0009.13,0006.05,0005.66
2022-02-24 01:58:00,,0823.0,5.00,0.00,22.6,21.7,00.0,31.6,24.3,04.8,0001.8,0009.16,0006.03,0005.62
2022-02-24 01:59:00,,0823.0,4.99,0.00,22.6,21.5,00.0,31.6,24.2,04.8,0001.4,0009.14,0006.00,0005.58
